Content
SEND FEEDBACK

Daily
Averages
Monthly
Summary
United States of America

COOS BAY, OREGON


Home > North America > United States > Oregon
Elevation: 3 feet     Latitude: 43 25N     Longitude: 124 15W

WEATHER
 
SELECT A DAY
Number of Records: 450,112;   Date Range: 1/1/95 - 10/21/14
 
SHARE

PRINT THIS DATA

[ ← Previous Day ]
WEATHER ALMANAC - JANUARY 31, 2013
[ Next Day → ]
[ °C ]   °F
Weather ElementAverageHighLow
Temperature44.4 °F55.4 °F (2:35 pm)35.6 °F (7:35 am)
Dewpoint42.6 °F50 °F (11:35 am)35.6 °F (7:35 am)
Humidity94.1 %100 % (12:35 am)67 % (3:55 pm)
Barometer30.41 in30.48 in (1:15 am)30.35 in (8:35 pm)
Wind Speed3 mph10.4 mph (3:35 pm)
Weather ElementAverage
Visibility6.5 mi
Wind DirectionESE (99.6 °)

Weather ElementTotal
Precipitation---
Heating Degree Days19.5 (Base 65)
Averaged from 68 records on January 31, 2013
WEATHER CONDITIONS BREAKOUT
WIND DIRECTION BREAKOUT
WEATHER BY HOUR - JANUARY 31, 2013
[ °C ]   °F
Local TimeTemperatureDewpointHumidityBarometerVisibilityWind DirectionWind SpeedGust SpeedPrecipitationEventsConditions
12:35 AM39.2 °F39.2 °F100 %30.47 in0.2 miCalmOvercast
12:55 AM39.2 °F37.4 °F93 %30.47 in0.2 miCalmOvercast
1:15 AM37.4 °F37.4 °F100 %30.48 in0.2 miCalmOvercast
1:35 AM39.2 °F39.2 °F100 %30.47 in0.5 miCalmOvercast
1:55 AM39.2 °F39.2 °F100 %30.47 in0.8 miCalmOvercast
2:15 AM39.2 °F39.2 °F100 %30.46 in1.0 miCalmOvercast
2:35 AM39.2 °F39.2 °F100 %30.47 in7.0 miCalmOvercast
2:55 AM41.0 °F41.0 °F100 %30.47 in10.0 miCalmOvercast
3:15 AM41.0 °F41.0 °F100 %30.46 in10.0 miCalmOvercast
3:35 AM39.2 °F39.2 °F100 %30.44 in1.0 miSE (130°)5.8 mphOvercast
3:55 AM39.2 °F39.2 °F100 %30.44 in0.2 miCalmOvercast
4:15 AM39.2 °F37.4 °F93 %30.44 in0.2 miSE (140°)3.5 mphOvercast
4:35 AM37.4 °F37.4 °F100 %30.44 in0.2 miSE (140°)4.6 mphOvercast
4:55 AM37.4 °F37.4 °F100 %30.44 in0.5 miSSE (150°)4.6 mphOvercast
5:15 AM37.4 °F37.4 °F100 %30.44 in0.8 miSSE (150°)5.8 mphOvercast
5:35 AM37.4 °F37.4 °F100 %30.44 in1.0 miESE (110°)3.5 mphOvercast
5:55 AM37.4 °F37.4 °F100 %30.44 in1.2 miCalmOvercast
6:15 AM37.4 °F37.4 °F100 %30.44 in3.0 miSSE (150°)3.5 mphOvercast
6:35 AM37.4 °F37.4 °F100 %30.44 in7.0 miSE (130°)4.6 mphOvercast
6:55 AM37.4 °F37.4 °F100 %30.44 in0.5 miSE (130°)3.5 mphOvercast
7:15 AM37.4 °F37.4 °F100 %30.44 in4.0 miCalmScattered Clouds
7:35 AM35.6 °F35.6 °F100 %30.43 in1.0 miSSE (160°)5.8 mphClear
7:55 AM37.4 °F35.6 °F93 %30.44 in5.0 miEast (100°)3.5 mphPartly Cloudy
8:15 AM37.4 °F37.4 °F100 %30.44 in0.5 miCalmOvercast
8:35 AM37.4 °F37.4 °F100 %30.44 in0.5 miCalmOvercast
8:55 AM39.2 °F39.2 °F100 %30.44 in3.0 miCalmMostly Cloudy
9:15 AM41.0 °F41.0 °F100 %30.44 in10.0 miSE (140°)4.6 mphScattered Clouds
9:35 AM42.8 °F42.8 °F100 %30.43 in10.0 miESE (120°)4.6 mphScattered Clouds
9:55 AM44.6 °F44.6 °F100 %30.43 in10.0 miSE (130°)5.8 mphScattered Clouds
10:15 AM46.4 °F46.4 °F100 %30.43 in10.0 miESE (120°)3.5 mphClear
10:35 AM48.2 °F48.2 °F100 %30.43 in10.0 miEast (100°)6.9 mphClear
10:55 AM48.2 °F48.2 °F100 %30.43 in10.0 miNW (310°)4.6 mphClear
11:15 AM48.2 °F46.4 °F93 %30.43 in10.0 miWSW (240°)3.5 mphClear
11:35 AM51.8 °F50.0 °F94 %30.42 in10.0 miNW (310°)3.5 mphClear
11:55 AM51.8 °F48.2 °F88 %30.42 in10.0 miCalmClear
12:15 PM51.8 °F48.2 °F88 %30.41 in10.0 miNNE (20°)3.5 mphClear
12:35 PM53.6 °F48.2 °F82 %30.40 in10.0 miNNW (330°)3.5 mphClear
12:55 PM53.6 °F48.2 °F82 %30.40 in10.0 miNW (310°)4.6 mphClear
1:15 PM53.6 °F50.0 °F88 %30.40 in10.0 miNW (310°)5.8 mphClear
1:35 PM51.8 °F48.2 °F88 %30.39 in10.0 miNW (320°)5.8 mphClear
1:55 PM53.6 °F48.2 °F82 %30.38 in10.0 miCalmClear
2:15 PM53.6 °F48.2 °F82 %30.38 in10.0 miCalmClear
2:35 PM55.4 °F50.0 °F82 %30.38 in10.0 miNW (320°)4.6 mphPartly Cloudy
2:55 PM55.4 °F46.4 °F72 %30.37 in10.0 miNNE (30°)6.9 mphMostly Cloudy
3:15 PM55.4 °F46.4 °F72 %30.37 in10.0 miNE (40°)9.2 mphPartly Cloudy
3:35 PM55.4 °F46.4 °F72 %30.38 in10.0 miNE (40°)10.4 mphClear
3:55 PM55.4 °F44.6 °F67 %30.38 in10.0 miNNE (30°)8.1 mphClear
4:15 PM53.6 °F48.2 °F82 %30.38 in10.0 miNorth (350°)9.2 mphClear
4:35 PM53.6 °F48.2 °F82 %30.38 in10.0 miNorth (360°)5.8 mphClear
4:55 PM51.8 °F48.2 °F88 %30.37 in10.0 miNorth (10°)5.8 mphClear
5:15 PM51.8 °F48.2 °F88 %30.37 in10.0 miNorth (350°)5.8 mphClear
5:35 PM50.0 °F48.2 °F94 %30.37 in10.0 miNorth (360°)4.6 mphClear
6:15 PM48.2 °F46.4 °F93 %30.37 in5.0 miNorth (360°)4.6 mphClear
6:35 PM46.4 °F46.4 °F100 %30.37 in5.0 miCalmClear
7:15 PM44.6 °F42.8 °F93 %30.36 in8.0 miCalmClear
7:35 PM44.6 °F44.6 °F100 %30.36 in10.0 miCalmClear
7:55 PM44.6 °F42.8 °F93 %30.36 in10.0 miESE (120°)3.5 mphClear
8:15 PM44.6 °F44.6 °F100 %30.36 in10.0 miCalmClear
8:35 PM44.6 °F44.6 °F100 %30.35 in10.0 miNE (40°)3.5 mphClear
9:15 PM42.8 °F42.8 °F100 %30.36 in10.0 miNNE (20°)3.5 mphClear
9:35 PM42.8 °F41.0 °F93 %30.35 in10.0 miCalmClear
9:55 PM42.8 °F41.0 °F93 %30.35 in8.0 miCalmClear
10:15 PM42.8 °F42.8 °F100 %30.35 in10.0 miNNE (30°)3.5 mphClear
10:35 PM41.0 °F41.0 °F100 %30.35 in10.0 miNNE (30°)4.6 mphClear
10:55 PM41.0 °F39.2 °F93 %30.35 in10.0 miNNE (30°)4.6 mphClear
11:15 PM41.0 °F41.0 °F100 %30.35 in2.0 miCalmClear
11:35 PM41.0 °F39.2 °F93 %30.35 in1.0 miCalmMostly Cloudy
11:55 PM39.2 °F39.2 °F100 %30.35 in4.0 miCalmMostly Cloudy
Hourly data recorded from KOTH, located miles away from Coos Bay, Oregon







STORIES FROM OUR PARTNERS